timestamp,surface_pressure_avg,surface_temp_avg,battery_voltage,lat,long
2022-03-18 00:09:01+00:00,337.6013,1.5,11.77,47.84626,-54.09684
2022-03-18 00:19:00+00:00,337.93300000000005,1.5,11.77,47.84626,-54.09684
2022-03-18 00:29:00+00:00,333.528,1.5,11.77,47.84626,-54.09684
2022-03-18 00:39:00+00:00,328.1447,1.5,11.77,47.84626,-54.09684
2022-03-18 00:49:00+00:00,325.0214,1.5,11.77,47.84626,-54.09684
2022-03-18 00:59:00+00:00,319.9397,1.5,11.77,47.84626,-54.09684
2022-03-18 01:09:00+00:00,317.1797,1.5,11.77,47.84626,-54.09684
2022-03-18 01:19:01+00:00,315.9963,1.5,11.77,47.84626,-54.09684
2022-03-18 01:29:01+00:00,308.5813,1.5,11.77,47.84626,-54.09684
2022-03-18 01:39:01+00:00,300.9213,1.5,11.77,47.84626,-54.09684
2022-03-18 01:49:01+00:00,298.973,1.5,11.77,47.84626,-54.09684
2022-03-18 01:59:01+00:00,293.6747,1.5,11.77,47.84626,-54.09684
2022-03-18 02:09:01+00:00,284.683,1.5,11.77,47.84626,-54.09684
2022-03-18 02:19:00+00:00,279.9614,1.5,11.77,47.84626,-54.09684
2022-03-18 02:29:00+00:00,274.528,1.5,11.77,47.84626,-54.09684
2022-03-18 02:39:00+00:00,264.0414,1.47,11.77,47.84626,-54.09684
2022-03-18 02:49:00+00:00,254.5514,1.43,11.77,47.84626,-54.09684
2022-03-18 02:59:00+00:00,247.513,1.42,11.77,47.84626,-54.09684
2022-03-18 03:09:00+00:00,236.5381,1.4,11.77,47.84626,-54.09684
2022-03-18 03:19:01+00:00,226.3397,1.4,11.77,47.84626,-54.09684
2022-03-18 03:29:01+00:00,223.7365,1.38,11.77,47.84626,-54.09684
2022-03-18 03:39:01+00:00,220.1981,1.38,11.77,47.84626,-54.09684
2022-03-18 03:49:01+00:00,209.9881,1.37,11.77,47.84626,-54.09684
2022-03-18 03:59:01+00:00,204.5015,1.38,11.77,47.84626,-54.09684
2022-03-18 04:09:01+00:00,205.0681,1.4,11.77,47.84626,-54.09684
2022-03-18 04:19:01+00:00,199.0964,1.42,11.77,47.84626,-54.09684
2022-03-18 04:29:01+00:00,188.1482,1.4,11.77,47.84626,-54.09684
2022-03-18 04:39:01+00:00,186.7931,1.4,11.77,47.84626,-54.09684
2022-03-18 04:49:01+00:00,188.4265,1.4,11.77,47.84626,-54.09684
2022-03-18 04:59:01+00:00,183.3981,1.43,11.77,47.84626,-54.09684
2022-03-18 05:09:01+00:00,178.8615,1.42,11.77,47.84626,-54.09684
2022-03-18 05:19:01+00:00,178.9981,1.4,11.77,47.84626,-54.09684
2022-03-18 05:29:01+00:00,178.1431,1.4,11.77,47.84626,-54.09684
2022-03-18 05:39:01+00:00,174.8965,1.4,11.77,47.84626,-54.09684
2022-03-18 05:49:01+00:00,175.6881,1.4,11.77,47.84626,-54.09684
2022-03-18 05:59:01+00:00,178.8298,1.4,11.77,47.84626,-54.09684
2022-03-18 06:09:01+00:00,182.9082,1.4,11.77,47.84626,-54.09684
2022-03-18 06:19:00+00:00,188.0448,1.4,11.77,47.84626,-54.09684
2022-03-18 06:29:00+00:00,189.7198,1.4,11.77,47.84626,-54.09684
2022-03-18 06:39:00+00:00,191.2348,1.4,11.77,47.84626,-54.09684
2022-03-18 06:49:00+00:00,196.4214,1.4,11.77,47.84626,-54.09684
2022-03-18 06:59:00+00:00,202.0815,1.4,11.77,47.84626,-54.09684
2022-03-18 07:09:00+00:00,206.5031,1.39,11.77,47.84626,-54.09684
2022-03-18 07:19:00+00:00,209.1097,1.39,11.77,47.84626,-54.09684
2022-03-18 07:29:00+00:00,214.8731,1.4,11.77,47.84626,-54.09684
2022-03-18 07:39:00+00:00,221.7614,1.4,11.77,47.84626,-54.09684
2022-03-18 07:49:00+00:00,226.6931,1.4,11.77,47.84626,-54.09684
2022-03-18 07:59:00+00:00,229.2631,1.4,11.77,47.84626,-54.09684
2022-03-18 08:09:00+00:00,236.6297,1.4,11.77,47.84626,-54.09684
2022-03-18 08:19:00+00:00,242.3781,1.39,11.77,47.84626,-54.09684
2022-03-18 08:29:00+00:00,246.5181,1.32,11.77,47.84626,-54.09684
2022-03-18 08:39:00+00:00,252.6414,1.3,11.77,47.84626,-54.09684
2022-03-18 08:49:00+00:00,258.7181,1.3,11.77,47.84626,-54.09684
2022-03-18 08:59:00+00:00,263.9414,1.3,11.77,47.84626,-54.09684
2022-03-18 09:09:00+00:00,270.5314,1.32,11.77,47.84626,-54.09684
2022-03-18 09:19:00+00:00,277.5914,1.3,11.77,47.84626,-54.09684
2022-03-18 09:29:00+00:00,280.7414,1.3,11.77,47.84626,-54.09684
2022-03-18 09:39:00+00:00,289.973,1.3,11.77,47.84626,-54.09684
2022-03-18 09:49:00+00:00,304.0297,1.3,11.77,47.84626,-54.09684
2022-03-18 09:59:00+00:00,310.4113,1.3,11.77,47.84626,-54.09684
2022-03-18 10:09:00+00:00,312.0231,1.3,11.77,47.84626,-54.09684
2022-03-18 10:19:00+00:00,321.2747,1.3,11.77,47.84626,-54.09684
2022-03-18 10:29:00+00:00,332.5546,1.3,11.77,47.84626,-54.09684
2022-03-18 10:39:00+00:00,335.3497,1.3,11.77,47.84626,-54.09684
2022-03-18 10:49:00+00:00,338.5214,1.3,11.77,47.84626,-54.09684
2022-03-18 10:59:00+00:00,347.5597,1.3,11.77,47.84626,-54.09684
2022-03-18 11:09:00+00:00,350.1346,1.3,11.77,47.84626,-54.09684
2022-03-18 11:19:01+00:00,348.218,1.3,11.77,47.84626,-54.09684
2022-03-18 11:29:01+00:00,351.4646,1.3,11.77,47.84626,-54.09684
2022-03-18 11:39:01+00:00,356.658,1.3,11.77,47.84626,-54.09684
2022-03-18 11:49:01+00:00,355.543,1.3,11.77,47.84626,-54.09684
2022-03-18 11:59:01+00:00,357.2696,1.29,11.77,47.84626,-54.09684
2022-03-18 12:09:01+00:00,360.2746,1.28,11.77,47.84626,-54.09684
2022-03-18 12:19:00+00:00,358.4963,1.3,11.77,47.84626,-54.09684
2022-03-18 12:29:00+00:00,356.2196,1.33,11.77,47.84626,-54.09684
2022-03-18 12:39:00+00:00,357.2379,1.3,11.77,47.84626,-54.09684
2022-03-18 12:49:00+00:00,356.4296,1.3,11.77,47.84626,-54.09684
2022-03-18 12:59:00+00:00,350.0113,1.3,11.77,47.84626,-54.09684
2022-03-18 13:09:00+00:00,350.0946,1.3,11.77,47.84626,-54.09684
2022-03-18 13:19:01+00:00,351.6995,1.3,11.77,47.84626,-54.09684
2022-03-18 13:29:01+00:00,342.5479,1.3,11.77,47.84626,-54.09684
2022-03-18 13:39:01+00:00,331.0613,1.29,11.77,47.84626,-54.09684
2022-03-18 13:49:01+00:00,333.0029,1.3,11.77,47.84626,-54.09684
2022-03-18 13:59:01+00:00,329.7646,1.3,11.77,47.84626,-54.09684
2022-03-18 14:09:01+00:00,315.8863,1.3,11.77,47.84626,-54.09684
2022-03-18 14:19:00+00:00,308.568,1.3,11.77,47.84626,-54.09684
2022-03-18 14:29:00+00:00,308.58799999999997,1.3,11.77,47.84626,-54.09684
2022-03-18 14:39:00+00:00,298.3997,1.3,11.77,47.84626,-54.09684
2022-03-18 14:49:00+00:00,284.5914,1.3,11.77,47.84626,-54.09684
2022-03-18 14:59:00+00:00,280.1547,1.29,11.77,47.84626,-54.09684
2022-03-18 15:09:00+00:00,273.2614,1.3,11.77,47.84626,-54.09684
2022-03-18 15:19:00+00:00,260.183,1.29,11.77,47.84626,-54.09684
2022-03-18 15:29:00+00:00,249.1848,1.29,11.77,47.84626,-54.09684
2022-03-18 15:39:00+00:00,245.4897,1.29,11.77,47.84626,-54.09684
2022-03-18 15:49:00+00:00,239.0214,1.3,11.77,47.84626,-54.09684
2022-03-18 15:59:00+00:00,230.0064,1.3,11.77,47.84626,-54.09684
2022-03-18 16:09:00+00:00,224.8731,1.3,11.77,47.84626,-54.09684
2022-03-18 16:19:00+00:00,220.0231,1.3,11.77,47.84626,-54.09684
2022-03-18 16:29:00+00:00,210.0165,1.3,11.77,47.84626,-54.09684
2022-03-18 16:39:00+00:00,201.2948,1.3,11.77,47.84626,-54.09684
2022-03-18 16:49:00+00:00,196.3215,1.3,11.77,47.84626,-54.09684
2022-03-18 16:59:00+00:00,187.3848,1.3,11.77,47.84626,-54.09684
2022-03-18 17:09:00+00:00,182.3265,1.3,11.77,47.84626,-54.09684
2022-03-18 17:19:01+00:00,182.0848,1.3,11.77,47.84626,-54.09684
2022-03-18 17:29:01+00:00,178.2915,1.3,11.77,47.84626,-54.09684
2022-03-18 17:39:01+00:00,175.6165,1.3,11.77,47.84626,-54.09684
2022-03-18 17:49:01+00:00,177.7448,1.3,11.77,47.84626,-54.09684
2022-03-18 17:59:01+00:00,175.3165,1.3,11.77,47.84626,-54.09684
2022-03-18 18:09:01+00:00,170.1231,1.3,11.77,47.84626,-54.09684
2022-03-18 18:19:00+00:00,173.4098,1.3,11.77,47.84626,-54.09684
2022-03-18 18:29:00+00:00,177.7765,1.3,11.77,47.84626,-54.09684
2022-03-18 18:39:00+00:00,175.1881,1.3,11.77,47.84626,-54.09684
2022-03-18 18:49:00+00:00,177.9965,1.3,11.77,47.84626,-54.09684
2022-03-18 18:59:00+00:00,186.3765,1.3,11.77,47.84626,-54.09684
2022-03-18 19:09:00+00:00,188.7248,1.3,11.77,47.84626,-54.09684
2022-03-18 19:19:01+00:00,193.6664,1.3,11.77,47.84626,-54.09684
2022-03-18 19:29:01+00:00,204.5065,1.3,11.77,47.84626,-54.09684
2022-03-18 19:39:01+00:00,212.1014,1.3,11.77,47.84626,-54.09684
2022-03-18 19:49:01+00:00,214.3597,1.3,11.77,47.84626,-54.09684
2022-03-18 19:59:01+00:00,220.2032,1.3,11.77,47.84626,-54.09684
2022-03-18 20:09:01+00:00,228.5981,1.29,11.77,47.84626,-54.09684
2022-03-18 20:19:00+00:00,232.7264,1.27,11.77,47.84626,-54.09684
2022-03-18 20:29:00+00:00,234.3164,1.28,11.77,47.84626,-54.09684
2022-03-18 20:39:00+00:00,239.4381,1.28,11.77,47.84626,-54.09684
2022-03-18 20:49:00+00:00,247.4048,1.28,11.77,47.84626,-54.09684
2022-03-18 20:59:00+00:00,255.3947,1.29,11.77,47.84626,-54.09684
2022-03-18 21:09:00+00:00,260.3381,1.29,11.77,47.84626,-54.09684
2022-03-18 21:19:01+00:00,265.388,1.28,11.77,47.84626,-54.09684
2022-03-18 21:29:01+00:00,271.7647,1.28,11.77,47.84626,-54.09684
2022-03-18 21:39:01+00:00,279.168,1.26,11.77,47.84626,-54.09684
2022-03-18 21:49:01+00:00,287.303,1.27,11.77,47.84626,-54.09684
2022-03-18 21:59:01+00:00,296.7513,1.25,11.77,47.84626,-54.09684
2022-03-18 22:09:01+00:00,303.5847,1.2,11.77,47.84626,-54.09684
2022-03-18 22:19:01+00:00,311.4564,1.2,11.77,47.84626,-54.09684
2022-03-18 22:29:01+00:00,321.9146,1.2,11.77,47.84626,-54.09684
2022-03-18 22:39:01+00:00,332.468,1.2,11.77,47.84626,-54.09684
2022-03-18 22:49:01+00:00,342.30300000000005,1.2,11.77,47.84626,-54.09684
2022-03-18 22:59:01+00:00,350.6929,1.2,11.77,47.84626,-54.09684
2022-03-18 23:09:01+00:00,358.528,1.2,11.77,47.84626,-54.09684
2022-03-18 23:19:01+00:00,362.168,1.2,11.77,47.84626,-54.09684
2022-03-18 23:29:01+00:00,364.2463,1.2,11.77,47.84626,-54.09684
2022-03-18 23:39:01+00:00,367.0312,1.22,11.77,47.84626,-54.09684
2022-03-18 23:49:01+00:00,366.1212,1.28,11.77,47.84626,-54.09684
2022-03-18 23:59:01+00:00,367.4147,1.28,11.77,47.84626,-54.09684
